Location: Bluff Heights
(33.7692°N, 118.1592°W)
Time: 17:00:46
(UTC+00:00)

Altair - Visible Passes

Search period start: 28 July 2021 00:00
Search period end: 07 August 2021 00:00
Orbit: 1501 x 1682 km, 47.2° (Epoch: 28 July)

Date Brightness Start Highest point End Pass type
(mag) Time Alt. Az. Time Alt. Az. Time Alt. Az.
28 Jul 9.4 07:32:52 11° E 07:32:52 11° E 07:33:08 10° E visible
28 Jul 7.3 09:30:52 67° SSE 09:31:29 69° SE 09:40:37 10° ENE visible
28 Jul 8.1 11:28:52 15° W 11:36:33 48° NNW 11:45:22 10° NE visible
29 Jul 7.5 09:06:50 63° ESE 09:06:50 63° ESE 09:15:26 10° ENE visible
29 Jul 8.0 11:04:49 20° W 11:11:17 51° NNW 11:20:11 10° NE visible
30 Jul 7.7 08:42:45 53° ESE 08:42:45 53° ESE 08:50:13 10° ENE visible
30 Jul 7.9 10:40:44 27° W 10:46:02 54° NNW 10:55:01 10° NE visible
31 Jul 8.0 08:18:38 43° E 08:18:38 43° E 08:25:01 10° ENE visible
31 Jul 7.8 10:16:37 34° W 10:20:48 57° NNW 10:29:51 10° NE visible
31 Jul 8.7 12:18:51 10° WNW 12:27:10 35° N 12:35:22 10° ENE visible
01 Aug 8.3 07:54:28 35° E 07:54:28 35° E 07:59:46 10° ENE visible
01 Aug 7.7 09:52:27 43° W 09:55:34 61° NNW 10:04:41 10° NE visible
01 Aug 8.6 11:53:29 10° WNW 12:01:50 35° N 12:10:04 10° ENE visible
02 Aug 8.6 07:30:16 28° E 07:30:16 28° E 07:34:31 10° ENE visible
02 Aug 7.6 09:28:15 53° W 09:30:20 65° NNW 09:39:31 10° NE visible
02 Aug 8.6 11:28:06 10° WNW 11:36:30 36° N 11:44:47 10° ENE visible
03 Aug 8.8 07:06:01 23° ENE 07:06:01 23° ENE 07:09:15 10° ENE visible
03 Aug 7.5 09:04:00 64° WNW 09:05:07 69° NNW 09:14:22 10° NE visible
03 Aug 8.5 11:02:42 10° WNW 11:11:11 37° N 11:19:31 10° ENE visible
04 Aug 9.0 06:41:43 18° ENE 06:41:43 18° ENE 06:43:57 10° ENE visible
04 Aug 7.4 08:39:42 73° NW 08:39:54 73° NNW 08:49:12 10° NE visible
04 Aug 8.5 10:37:40 11° WNW 10:45:52 38° N 10:54:16 10° NE visible
05 Aug 9.1 06:17:21 14° ENE 06:17:21 14° ENE 06:18:37 10° ENE visible
05 Aug 7.5 08:15:19 75° N 08:15:19 75° N 08:24:03 10° NE visible
05 Aug 8.5 10:13:17 15° WNW 10:20:33 39° NNW 10:29:01 10° NE visible
05 Aug 8.7 12:18:49 10° NW 12:27:21 39° NNE 12:35:48 10° E visible
06 Aug 9.3 05:52:54 11° ENE 05:52:54 11° ENE 05:53:15 10° ENE visible
06 Aug 7.5 07:50:52 69° NE 07:50:52 69° NE 07:58:53 10° NE visible
06 Aug 8.4 09:48:49 18° WNW 09:55:14 40° NNW 10:03:47 10° NE visible
06 Aug 8.7 11:53:32 10° NW 12:02:03 38° NNE 12:10:25 10° ENE visible
